This demonstration page uses our WeatherBlox Daily Observations layout. Learn more.

Left ArrowRight Arrow

Hourly Observations for January 9, 2022

Temp ( °F °C ) Dew Point ( °F °C ) Humidity (%) Winds ( mph kmh ) Pressure ( in mb ) Visibility ( mi km ) Precip ( " mm )
12:13 am 00:13 Mostly Cloudy with Mist and Fog 47 8.3 47 8.3 100 100 Calm 30.02 1017 1 1 0.00 0.00
12:52 am 00:52 Mostly Cloudy with Light Rain 48 8.9 47 8.3 96 96 NNW 5 7 30.03 1017 1 2 0.00 0.00
1:19 am 01:19 Cloudy with Light Rain 48 8.9 48 8.9 100 100 NW 5 7 30.05 1018 2 3 0.05 1.27
1:52 am 01:52 Cloudy with Light Rain 47 8.3 47 8.3 100 100 NNW 8 13 30.04 1017 1 2 0.10 2.54
2:02 am 02:02 Cloudy with Mist and Fog 48 8.9 47 8.3 96 96 NW 9 15 30.07 1018 3 5 0.00 0.00
2:13 am 02:13 Cloudy with Light Rain 48 8.9 48 8.9 100 100 NNW 14 22 30.07 1018 8 13 0.00 0.00
2:43 am 02:43 Cloudy with Light Rain 47 8.3 47 8.3 100 100 NNW 14 22 30.09 1019 2 3 0.00 0.00
2:52 am 02:52 Cloudy with Light Rain 46 7.8 46 7.8 100 100 NNW 20 31 30.09 1019 3 4 0.00 0.00
2:59 am 02:59 Cloudy with Mist and Fog 46 7.8 45 7.2 96 96 N 15 24 30.10 1019 6 10 0.00 0.00
3:13 am 03:13 Cloudy with Mist and Fog 45 7.2 44 6.7 97 97 N 22 35 30.12 1020 2 3 0.00 0.00
3:28 am 03:28 Cloudy with Mist and Fog 43 6.1 42 5.6 97 97 N 21 33 30.14 1021 3 5 0.00 0.00
3:52 am 03:52 Cloudy with Mist and Fog 41 5 41 5 100 100 N 17 28 30.13 1020 2 3 0.00 0.00
4:10 am 04:10 Cloudy with Mist and Fog 40 4.4 40 4.4 100 100 N 20 31 30.17 1022 5 8 0.00 0.00
4:28 am 04:28 Cloudy 38 3.3 38 3.3 100 100 N 16 26 30.20 1023 7 11 0.00 0.00
4:52 am 04:52 Cloudy 37 2.8 35 1.7 93 93 N 21 33 30.19 1022 8 13 0.00 0.00
5:05 am 05:05 Cloudy 36 2.2 35 1.7 97 97 N 17 28 30.23 1024 7 11 0.00 0.00
5:16 am 05:16 Cloudy 36 2.2 34 1.1 93 93 N 20 31 30.24 1024 8 13 0.00 0.00
5:52 am 05:52 Cloudy 35 1.7 33 0.6 93 93 N 15 24 30.22 1023 7 11 0.00 0.00
6:05 am 06:05 Mostly Cloudy 34 1.1 32 0 92 92 N 13 20 30.27 1025 7 11 0.00 0.00
6:42 am 06:42 Mostly Clear with Mist and Fog 33 0.6 32 0 96 96 N 14 22 30.29 1026 6 10 0.00 0.00
6:52 am 06:52 Mostly Clear 33 0.6 31 -0.6 92 92 N 15 24 30.27 1025 7 11 0.00 0.00
7:25 am 07:25 Mostly Cloudy 32 0 30 -1.1 92 92 N 16 26 30.35 1028 7 11 0.00 0.00
7:52 am 07:52 Cloudy with Mist and Fog 32 0 30 -1.1 92 92 N 17 28 30.33 1027 6 10 0.00 0.00
8:45 am 08:45 Partly Cloudy 34 1.1 29 -1.7 82 82 N 17 28 30.41 1030 9 14 0.00 0.00
8:52 am 08:52 Mostly Sunny 34 1.1 29 -1.7 82 82 N 20 31 30.38 1029 10 16 0.00 0.00
9:52 am 09:52 Sunny 35 1.7 26 -3.3 70 70 NNE 17 28 30.43 1031 10 16 0.00 0.00
10:52 am 10:52 Sunny 36 2.2 23 -5 59 59 NNE 20 31 30.46 1032 10 16 0.00 0.00
11:52 am 11:52 Sunny 37 2.8 19 -7.2 48 48 NNE 18 30 30.48 1032 10 16 0.00 0.00
12:52 pm 12:52 Sunny 37 2.8 17 -8.3 44 44 NNE 17 28 30.48 1032 10 16 0.00 0.00
1:52 pm 13:52 Sunny 39 3.9 18 -7.8 43 43 N 16 26 30.49 1032 10 16 0.00 0.00
2:52 pm 14:52 Sunny 38 3.3 15 -9.4 39 39 N 16 26 30.51 1033 10 16 0.00 0.00
3:52 pm 15:52 Sunny 36 2.2 17 -8.3 46 46 NNW 13 20 30.54 1034 10 16 0.00 0.00
4:52 pm 16:52 Sunny 33 0.6 12 -11.1 42 42 N 12 19 30.56 1035 10 16 0.00 0.00
5:52 pm 17:52 Clear 28 -2.2 17 -8.3 63 63 NNW 7 11 30.60 1036 10 16 0.00 0.00
6:52 pm 18:52 Clear 27 -2.8 16 -8.9 63 63 NNW 9 15 30.63 1037 10 16 0.00 0.00
7:52 pm 19:52 Clear 25 -3.9 14 -10 63 63 N 8 13 30.65 1038 10 16 0.00 0.00
8:52 pm 20:52 Clear 23 -5 13 -10.6 65 65 N 5 7 30.65 1038 10 16 0.00 0.00
9:52 pm 21:52 Clear 21 -6.1 13 -10.6 71 71 NNW 8 13 30.65 1038 10 16 0.00 0.00
10:52 pm 22:52 Clear 19 -7.2 13 -10.6 77 77 NNW 5 7 30.67 1039 10 16 0.00 0.00
11:52 pm 23:52 Clear 17 -8.3 12 -11.1 80 80 ESE 5 7 30.65 1038 10 16 0.00 0.00

Powered by AerisWeather